SL-12 R/B(2), 32278

Orbit data source: Space-Track

SL-12 R/B(2), 32278 is space debris in MEO originally from a launch on Fri, 26 Oct 2007 UTC launched from the Tyuratam Missile And Space Complex (TTMTR). Debris objects in space refer to the collection of defunct objects orbiting the Earth. Examples of debris include non-operational satellites, rocket bodies, and fragments generated from explosions, collisions, or faulty payload assembly.

Loading next visibility...
SL-12 R/B(2) details
Identifier
32278, 2007-052D
Orbit
MEO
Last TLE update2 days ago
Origin
Flag of CISKhrunichev (CIS)
ManufacturerRKKE
MissionSpacecraft
Bus & MotorBLOK DM2, 11D58M
Mass2,440 kg wet, 2,440 kg dry
Launch date (UTC)
2007-10-26 (17 years ago)
Launch vehicleUnknown
Launch site
Tyuratam Missile And Space Complex (TTMTR)
Object type
Payload
Rocket body
Debris
Shape & HBRCyl, 7.1 m
Radar Cross Section26.008 m², Large (>1 m²)

Expand to show TLE details & history

TLE from 2 days ago
0 SL-12 R/B(2)
1 32278U 07052D   24359.92576177 -.00000056  00000-0  00000+0 0  9994
2 32278  65.8524 333.4394 0017479 201.1051 340.0248  2.13394124133705
Epoch: 2024-12-24T22:13Z
Definitive object data (Epoch: 2024-12-24T22:13:05.816Z)
Latitude-1.02215°
Longitude86.68617°
Altitude19,065.524 km
Speed3.961 km/s
True Right ascension10h 15m 32s
True Declination-1° 01' 14"
Sunlit
Object was in daylight at TLE epoch
Visualization TLE readout
Latitude-64.80618°
Longitude-165.98802°
Altitude19,120.222 km
Speed3.955 km/s
Apparent Right ascension18h 48m 47s
Apparent Declination-64° 11' 09"
Sunlit
Object is in daylight
Visualization observer readout
Local Sidereal Time10:19:02
Azimuth146.409° SSE
Elevation-51.321°
Doppler factor1
Orbital elements
Apogee altitude19,150.732 km
Perigee altitude19,061.644 km
Semi-major axis25,484.325 km
Eccentricity0.0017479
Inclination65.8524°
RAAN333.4394°
Arg. of periapsis201.1051°
True anomaly339.95624°
Mean anomaly340.0248°
Eccentric anomaly339.99053°
Mean motion0.5335 °/min
BSTARUnknown
Orbital period674.79 mins
Loading maneuver chart data...
Loading historical data...
Loading historical data...
Loading historical data...
Loading historical data...
Loading historical data...
Loading historical data...
Loading historical data...

SL-12 R/B(2) Visibility forecast

Observer location: undefined°, undefined

Span
Click to sort rows by Start time (UTC) header in descending order
Start Az.
Max El. time (UTC)
Max El. Az.
Max El.
End time (UTC)
End Az.
357 mins2024-12-27 00:06:46.652Z209.594° SW2024-12-27 02:37:46.652Z312.795° NW41.976°2024-12-27 06:03:46.652Z97.08° ESE
|